Temperature
16 16 16 16 16 16 16 16 17 17 17 17 17 17 17 17 17 17 17 16 16 16 16 16 16 16 16 16 15 15 15 15 15 15 15 15 15 15 15 15 15 15 15
16 16 16 16 16 16 16 16 16 17 17 17 17 17 17 17 17 17 16 16 16 16 16 16 16 16 16 15 15 15 15 15 15 15 15 15 15 15 15 15 15 15 15
15 16 16 16 16 16 16 16 16 16 16 16 16 17 17 16 16 16 16 16 16 16 16 16 16 15 15 15 15 15 15 15 15 15 15 14 14 15 15 15 15 15 15
15 15 16 16 16 16 16 16 16 16 16 16 16 17 16 16 16 16 16 16 16 16 16 16 16 16 15 15 15 15 15 15 15 15 14 14 14 14 14 14 14 14 14
15 15 15 16 16 16 16 16 16 16 16 16 16 16 16 16 16 16 16 16 16 16 16 16 16 16 15 15 15 15 15 15 15 14 14 14 14 14 14 14 14 14 14
15 15 15 15 15 16 16 16 16 16 16 16 16 16 16 16 16 16 16 16 16 16 16 16 16 15 15 15 15 15 15 15 15 14 14 13 13 14 14 14 14 14 14
15 15 15 15 15 15 15 15 16 16 16 16 16 16 16 16 16 16 16 16 16 16 16 16 15 15 15 15 15 15 15 15 14 14 13 13 14 14 14 14 14 14 14
14 15 15 15 15 15 15 15 15 15 15 15 16 16 15 16 16 15 16 16 16 16 15 15 15 15 15 15 15 15 15 15 15 14 14 13 14 14 14 14 14 14 14
14 14 14 14 15 15 15 15 15 15 15 15 15 15 15 15 15 15 15 15 15 15 15 15 15 15 15 15 15 15 15 15 14 14 14 14 14 14 14 14 14 14 14
14 14 14 14 14 14 15 15 15 15 15 15 15 15 15 15 15 15 15 15 15 15 15 15 15 15 15 15 15 15 14 14 14 14 14 14 14 14 14 14 14 14 14
14 14 14 14 14 14 14 14 15 15 15 15 15 15 15 15 15 15 15 15 15 15 15 15 15 15 15 15 15 15 14 14 13 14 14 14 14 14 14 14 14 14 14
13 13 14 14 14 14 14 14 14 14 14 14 14 15 15 15 15 15 15 15 15 14 14 14 14 14 14 14 14 14 14 14 13 14 14 14 14 14 14 14 14 14 14
13 13 13 13 14 14 14 14 14 14 14 14 14 14 14 14 14 14 14 14 14 14 14 14 14 14 14 14 14 14 14 14 14 14 14 14 14 14 14 14 14 14 14
12 13 13 13 13 13 14 14 14 14 14 14 14 14 14 14 14 14 14 14 14 14 14 14 14 14 14 14 14 14 14 14 14 14 14 14 14 14 14 14 14 14 14
12 12 12 13 13 13 13 13 13 13 14 14 14 14 14 14 14 14 14 14 14 14 14 14 14 14 14 13 13 13 14 14 14 14 14 14 14 14 14 14 14 14 14
11 12 12 12 12 13 13 13 13 13 13 13 13 13 13 13 13 13 13 13 13 13 13 13 13 13 13 13 13 13 13 13 13 13 14 14 14 14 14 14 14 14 14
11 11 11 12 12 12 12 12 12 12 12 12 13 13 13 13 13 13 13 13 13 13 13 13 13 13 13 13 13 13 13 13 13 13 13 13 14 14 14 14 14 14 14
11 11 11 11 11 12 12 12 12 12 12 12 12 12 12 12 12 12 12 12 12 12 12 12 12 12 12 12 12 12 13 13 13 13 13 13 13 14 14 14 14 14 13
10 10 10 11 11 11 11 11 11 11 11 11 11 11 11 12 12 11 11 11 11 11 11 12 11 12 12 12 12 12 12 12 12 12 12 13 13 13 13 13 13 13 13
9 10 10 10 10 10 10 11 11 10 10 11 11 11 11 11 11 11 11 11 11 11 11 11 11 11 11 11 11 11 11 12 12 12 12 12 12 13 13 13 13 13 13
9 9 9 9 10 10 10 10 10 10 10 10 10 10 10 10 10 10 10 10 10 10 10 10 10 10 10 10 10 11 11 11 11 11 12 12 12 12 12 12 12 12 13
9 9 9 9 9 9 9 9 9 9 9 9 9 10 10 10 10 10 10 10 10 10 10 10 10 10 10 10 9 9 10 11 11 11 11 11 12 12 12 12 12 12 12
8 8 8 8 9 9 9 9 9 9 9 9 9 9 9 9 9 9 9 9 9 9 9 9 9 9 9 9 9 9 9 10 10 10 11 11 11 11 11 11 11 11 12
8 8 8 8 8 8 8 8 8 8 8 8 8 8 8 9 9 9 9 9 9 9 9 9 9 8 8 8 8 8 8 8 9 9 10 10 10 10 10 10 11 11 11
8 8 8 8 8 8 8 7 7 7 7 7 8 8 8 8 8 8 8 8 8 8 8 8 8 8 8 8 8 8 8 8 8 8 9 9 9 9 9 10 10 10 10
7 7 7 7 7 7 7 7 7 7 7 7 7 7 7 8 8 7 8 8 7 7 7 8 8 8 8 7 7 7 7 7 7 7 8 8 8 9 9 9 9 9 9
Wind_Speed
2 2 5 6 9 9 9 10 10 10 10 10 10 9 9 9 9 8 8 7 7 7 7 7 7 8 8 8 9 10 10 10 10 10 10 10 10 10 9 7 6 10 10
1 3 7 7 9 9 9 9 9 9 9 9 9 9 8 8 8 7 7 6 6 6 6 7 7 8 8 9 9 9 10 10 10 9 9 9 9 8 8 7 6 9 9
3 5 7 8 9 9 9 9 9 9 9 8 8 8 7 7 6 6 6 6 6 6 6 6 7 7 8 9 9 9 9 9 8 6 4 6 8 8 8 8 8 9 8
4 5 7 9 9 8 8 8 8 8 8 8 7 7 6 6 5 5 5 5 6 6 6 7 7 6 8 8 8 8 8 7 6 3 3 4 6 7 6 6 6 7 7
5 6 8 9 8 7 7 7 7 7 7 7 7 6 5 5 4 4 4 5 5 6 6 7 6 6 7 8 8 7 6 6 5 4 3 3 4 6 5 5 5 6 6
6 7 8 9 8 7 7 6 5 6 6 6 5 5 4 4 4 3 4 4 5 6 6 7 7 7 7 8 7 7 6 6 6 4 3 3 4 6 4 4 4 5 5
7 7 8 9 8 7 7 5 5 4 5 4 4 4 3 3 3 3 3 4 4 6 6 7 7 8 8 8 8 7 6 6 6 4 4 3 3 4 4 4 4 4 5
8 8 9 9 8 7 7 6 4 3 3 3 3 3 3 3 2 2 3 4 4 5 6 6 8 8 8 8 8 7 7 8 7 5 5 4 4 5 5 5 5 5 5
9 8 8 7 7 6 6 6 5 4 3 2 1 2 2 2 2 2 2 3 4 4 5 6 7 8 8 9 9 8 8 9 8 6 6 5 6 7 7 6 6 5 5
9 9 8 7 6 5 4 6 5 5 4 2 1 0 1 2 3 3 3 3 4 4 5 6 7 8 8 9 9 9 9 10 10 8 7 6 7 9 9 8 8 7 7
9 8 8 7 7 5 4 4 3 3 3 2 0 1 2 4 4 4 4 3 4 4 5 6 7 8 8 9 10 10 10 10 9 8 8 6 9 10 11 10 10 9 9
8 8 8 8 7 6 4 3 2 2 2 2 2 2 3 3 3 4 3 4 5 6 7 7 8 8 10 9 10 11 10 11 10 9 9 8 11 12 12 12 12 12 11
7 8 8 8 7 7 5 4 3 2 2 2 3 3 3 3 3 3 3 4 6 7 7 7 9 9 9 8 8 9 10 10 9 9 10 11 13 14 14 14 14 14 14
7 8 8 8 7 7 6 4 3 3 3 3 3 4 4 3 3 3 4 4 5 5 6 6 6 8 9 10 10 10 10 9 10 9 10 12 15 16 16 16 16 16 16
7 7 8 8 8 7 6 5 4 3 3 4 4 4 4 4 4 4 4 5 5 6 6 6 7 8 9 9 10 10 11 12 12 11 10 12 16 17 17 18 18 18 18
6 6 7 7 8 7 6 5 4 4 4 4 3 4 5 4 4 4 5 5 5 6 7 7 8 8 8 8 9 10 12 12 13 13 12 12 16 18 19 19 19 19 19
5 6 6 6 7 7 6 6 5 4 4 4 4 4 5 5 5 5 5 5 5 6 7 7 8 8 7 8 10 11 11 12 12 13 13 13 13 17 20 20 21 21 21
4 5 6 6 6 7 6 5 4 4 4 4 4 4 5 6 6 5 5 5 6 6 6 6 6 7 8 8 9 9 10 10 13 14 13 14 13 13 16 20 21 22 21
3 4 5 6 7 7 6 5 4 4 4 4 4 4 5 6 6 6 5 5 6 5 5 6 6 7 8 8 9 9 10 10 11 12 13 14 14 14 14 14 19 21 21
3 4 4 5 6 6 5 4 3 3 4 4 4 5 6 6 6 6 5 6 5 5 5 6 7 7 7 8 9 9 10 10 10 11 12 12 13 14 15 14 14 15 20
2 3 4 5 6 6 5 4 4 4 4 4 4 6 6 7 7 6 5 5 5 5 6 7 7 8 7 6 7 7 9 11 11 10 10 10 11 12 13 14 13 13 13
2 3 4 5 5 5 4 4 3 5 4 4 4 6 7 7 7 6 5 5 5 5 6 6 6 6 6 5 5 6 6 7 8 9 9 9 10 9 10 12 12 12 12
2 3 3 4 4 5 5 4 4 3 3 3 4 5 6 7 7 6 6 5 5 5 5 6 6 7 7 6 6 5 5 6 6 6 8 8 8 7 8 8 9 10 11
2 2 3 3 4 4 4 4 4 4 4 4 5 5 6 6 6 7 7 6 5 5 5 6 6 6 7 7 6 7 8 8 6 6 6 6 6 7 7 6 6 7 8
2 2 2 3 3 3 4 4 4 4 4 4 5 5 6 5 6 7 7 6 6 5 6 6 6 6 6 7 6 6 7 8 8 8 9 7 6 5 6 6 6 5 6
3 2 2 3 3 3 3 3 4 5 5 5 5 5 5 5 5 6 7 6 6 5 6 6 6 6 6 7 6 6 6 6 6 7 9 9 8 6 6 4 4 4 4
Wind_Direction
108 98 107 119 127 129 129 132 133 134 134 134 136 136 135 136 137 136 135 133 129 122 119 118 119 118 115 111 106 103 101 95 91 89 89 91 92 94 94 94 102 96 89
132 131 120 124 128 128 126 126 129 133 136 138 141 141 141 141 142 142 144 143 137 129 123 120 121 121 120 117 111 107 103 98 96 93 99 105 98 95 96 88 67 90 95
108 123 131 127 128 128 126 124 125 128 130 134 139 143 146 146 146 148 151 153 145 138 134 127 123 121 123 121 119 116 112 108 103 106 142 122 111 102 102 103 97 98 98
95 107 114 120 126 129 126 126 129 129 130 132 136 139 145 146 150 155 156 156 153 149 142 138 134 131 134 132 129 126 125 122 120 159 149 116 119 110 110 111 109 106 102
92 91 96 105 112 121 124 124 128 130 130 132 136 139 143 144 150 163 167 159 157 154 153 152 149 149 149 148 144 140 140 139 152 191 133 129 126 120 121 116 117 115 111
89 82 92 96 99 104 111 117 121 127 130 132 135 138 145 151 150 151 154 159 167 168 166 167 166 165 163 163 162 160 159 167 193 177 164 159 143 131 138 133 131 132 130
78 70 85 87 89 92 95 100 108 118 125 133 140 144 147 151 159 157 157 160 172 178 181 182 181 179 178 177 178 178 178 191 212 195 188 180 152 150 164 158 155 154 152
71 65 70 76 76 80 82 81 88 106 123 133 139 143 148 145 143 153 168 174 180 185 189 191 191 193 192 193 192 191 190 202 214 210 206 198 169 188 189 182 181 178 177
64 60 57 60 71 77 75 66 64 67 80 97 121 142 149 157 162 160 170 187 198 199 200 200 200 203 206 204 203 200 200 212 227 215 215 211 188 205 204 200 203 203 195
56 49 43 44 49 56 67 62 56 53 48 45 44 228 198 188 189 190 204 204 212 213 211 210 209 211 213 212 210 206 205 214 230 223 222 209 200 216 215 211 213 216 214
50 41 36 30 29 29 40 49 58 59 41 17 347 354 234 227 223 214 225 223 228 226 224 222 220 219 217 214 213 211 212 229 228 230 228 210 213 221 222 222 221 222 223
41 33 28 24 20 18 20 20 23 24 19 355 336 302 270 260 252 257 226 231 240 236 232 229 228 224 225 227 214 211 228 233 236 232 229 215 223 226 227 229 229 229 229
40 31 24 18 15 15 11 9 5 358 350 339 342 327 299 285 273 262 253 238 242 238 241 233 228 233 235 237 235 227 234 236 236 237 232 216 228 233 234 234 234 233 233
41 31 24 16 15 13 8 7 3 359 352 345 337 333 314 301 288 279 268 264 258 250 250 246 246 245 246 244 242 242 239 238 240 241 238 218 228 236 239 239 238 236 236
40 29 22 17 16 10 8 5 1 351 343 339 333 327 324 307 294 288 277 270 266 265 258 254 253 251 250 251 250 249 247 244 244 245 244 225 228 237 242 243 242 240 239
36 25 19 17 14 10 6 3 357 347 342 333 326 324 319 311 301 293 285 280 275 269 265 260 257 257 256 253 254 252 252 250 248 247 248 239 229 235 241 244 245 244 242
28 19 16 12 8 6 3 359 352 346 340 335 330 328 324 315 306 296 288 285 283 276 271 265 262 259 257 255 254 253 252 252 251 249 247 247 242 234 236 242 245 246 246
22 17 12 7 3 1 356 349 347 343 342 337 332 330 329 322 313 303 290 285 288 282 274 267 263 260 257 257 258 256 253 251 253 252 250 245 245 245 238 235 241 245 247
16 11 8 6 1 356 348 342 340 338 340 338 338 337 332 323 316 304 294 294 292 284 276 270 267 264 263 261 262 262 259 255 254 253 251 250 247 245 247 239 234 241 245
15 9 7 6 2 353 346 342 338 339 344 345 345 344 338 333 323 312 302 300 297 287 280 273 270 266 264 265 266 265 263 261 255 253 254 252 249 246 245 247 243 239 239
12 7 5 2 1 357 352 345 339 340 338 341 346 344 342 337 334 324 314 307 302 289 288 287 278 272 267 268 268 268 263 258 253 251 252 253 252 249 249 248 247 248 243
350 354 353 354 355 355 347 334 317 316 317 327 333 340 343 341 339 330 320 311 307 298 294 293 288 283 278 267 266 277 273 263 250 255 254 253 255 256 254 252 252 251 252
309 335 338 342 344 346 340 330 322 316 310 320 335 337 341 340 339 335 325 314 307 299 295 294 289 281 276 268 258 258 267 265 287 258 252 252 258 262 261 262 261 262 259
276 305 319 328 334 338 336 329 326 322 319 321 323 323 329 337 341 340 332 325 314 303 294 289 284 278 276 272 268 258 262 275 274 277 266 262 267 268 272 272 269 265 264
262 286 306 317 323 330 330 323 315 309 308 310 315 321 329 333 338 341 338 331 323 313 305 297 290 283 276 272 269 268 264 265 262 266 275 277 277 275 275 273 272 272 273
249 266 291 304 312 319 319 315 313 308 307 308 315 322 327 327 330 339 336 330 324 317 313 305 295 290 284 278 273 269 266 264 263 262 268 276 276 274 276 278 275 279 286
Height
1532 1533 1533 1535 1536 1537 1538 1539 1540 1541 1541 1542 1542 1542 1543 1543 1543 1543 1543 1543 1543 1542 1542 1542 1542 1542 1542 1542 1542 1541 1541 1541 1541 1541 1541 1541 1540 1540 1540 1540 1540 1540 1539
1532 1533 1534 1535 1536 1537 1538 1540 1540 1541 1542 1542 1543 1543 1543 1543 1543 1543 1543 1543 1543 1543 1543 1543 1543 1543 1543 1543 1542 1542 1542 1542 1542 1542 1542 1542 1542 1541 1541 1541 1541 1541 1540
1531 1533 1534 1535 1536 1538 1539 1540 1541 1542 1542 1543 1543 1543 1544 1544 1544 1544 1544 1544 1544 1544 1544 1544 1543 1543 1543 1543 1543 1543 1543 1543 1543 1543 1543 1544 1543 1542 1542 1542 1542 1541 1541
1532 1533 1534 1535 1537 1538 1539 1540 1541 1542 1542 1543 1543 1544 1544 1544 1544 1544 1544 1544 1544 1544 1544 1544 1544 1544 1544 1544 1544 1544 1544 1544 1543 1543 1545 1545 1544 1543 1542 1542 1542 1542 1542
1532 1533 1534 1535 1537 1538 1539 1540 1541 1541 1542 1543 1543 1543 1544 1544 1544 1544 1544 1544 1544 1544 1544 1544 1544 1544 1544 1544 1544 1544 1544 1544 1544 1544 1544 1544 1544 1543 1543 1543 1542 1542 1542
1533 1534 1535 1536 1537 1538 1539 1540 1540 1541 1542 1542 1543 1543 1543 1544 1544 1544 1544 1544 1544 1544 1544 1544 1544 1544 1544 1544 1544 1544 1544 1544 1544 1545 1544 1544 1544 1543 1543 1543 1543 1542 1542
1533 1534 1535 1536 1537 1538 1539 1539 1540 1541 1541 1542 1542 1542 1543 1543 1543 1543 1543 1543 1543 1543 1543 1543 1544 1544 1544 1544 1544 1544 1544 1544 1544 1545 1544 1544 1544 1543 1543 1543 1542 1542 1542
1533 1534 1534 1535 1536 1537 1538 1539 1539 1540 1540 1541 1541 1542 1542 1542 1542 1543 1543 1543 1543 1543 1543 1543 1543 1543 1543 1543 1543 1543 1543 1543 1543 1544 1544 1544 1543 1542 1542 1542 1542 1542 1542
1533 1534 1534 1535 1536 1537 1537 1538 1538 1539 1539 1540 1540 1541 1541 1541 1541 1541 1541 1542 1542 1541 1541 1542 1542 1542 1542 1542 1542 1542 1542 1542 1543 1543 1543 1543 1542 1542 1542 1542 1542 1542 1542
1533 1534 1534 1535 1535 1536 1536 1537 1537 1538 1538 1538 1539 1539 1539 1540 1540 1540 1540 1540 1540 1540 1540 1540 1540 1541 1541 1541 1541 1541 1541 1541 1542 1542 1541 1541 1541 1541 1541 1541 1541 1541 1541
1533 1533 1534 1534 1535 1535 1535 1536 1536 1536 1536 1537 1537 1537 1538 1538 1538 1538 1538 1538 1538 1538 1538 1538 1538 1539 1539 1539 1539 1539 1539 1539 1540 1540 1540 1539 1539 1539 1540 1540 1540 1540 1540
1533 1533 1533 1534 1534 1534 1534 1534 1534 1535 1535 1535 1535 1535 1535 1536 1536 1536 1536 1536 1536 1536 1536 1536 1536 1536 1537 1537 1537 1537 1537 1537 1538 1537 1537 1537 1537 1538 1538 1538 1538 1538 1538
1533 1533 1533 1533 1533 1533 1533 1533 1533 1533 1533 1533 1533 1533 1533 1533 1533 1533 1533 1533 1533 1533 1533 1533 1534 1534 1534 1534 1534 1534 1534 1535 1535 1535 1535 1534 1535 1535 1535 1536 1536 1536 1536
1533 1532 1532 1532 1532 1531 1531 1531 1531 1531 1531 1531 1531 1531 1531 1530 1530 1530 1530 1530 1530 1530 1530 1530 1531 1531 1531 1531 1531 1531 1532 1531 1531 1531 1531 1531 1532 1532 1533 1533 1533 1533 1534
1532 1532 1532 1531 1531 1530 1530 1530 1530 1529 1529 1528 1528 1528 1528 1528 1527 1527 1527 1527 1527 1527 1527 1527 1527 1527 1527 1527 1527 1528 1528 1528 1528 1528 1528 1527 1528 1528 1529 1529 1530 1530 1530
1532 1531 1531 1530 1530 1529 1529 1528 1528 1527 1527 1526 1526 1525 1525 1525 1524 1524 1524 1523 1523 1523 1523 1523 1523 1523 1523 1523 1523 1523 1523 1524 1524 1523 1523 1523 1523 1524 1525 1525 1526 1526 1526
1531 1530 1530 1529 1528 1528 1527 1526 1526 1525 1524 1524 1523 1523 1522 1522 1521 1521 1520 1520 1519 1519 1519 1518 1519 1519 1519 1519 1518 1518 1519 1519 1519 1519 1519 1519 1519 1519 1519 1520 1521 1521 1522
1529 1529 1528 1528 1527 1526 1525 1524 1523 1523 1522 1521 1521 1520 1519 1519 1518 1518 1517 1516 1516 1515 1515 1514 1514 1514 1514 1514 1514 1514 1514 1513 1513 1514 1513 1513 1513 1514 1514 1515 1515 1516 1517
1528 1528 1527 1526 1525 1524 1523 1522 1521 1520 1519 1519 1518 1517 1517 1516 1515 1514 1514 1513 1512 1512 1511 1511 1510 1510 1510 1509 1509 1509 1509 1508 1508 1508 1508 1508 1508 1508 1509 1509 1510 1510 1511
1527 1526 1525 1524 1523 1522 1521 1520 1519 1518 1517 1516 1515 1514 1514 1513 1512 1511 1510 1509 1509 1508 1507 1507 1506 1506 1505 1505 1504 1504 1503 1503 1502 1502 1503 1503 1503 1503 1503 1504 1504 1504 1505
1525 1524 1523 1522 1521 1520 1519 1518 1517 1516 1515 1514 1513 1512 1511 1510 1509 1508 1507 1506 1505 1504 1503 1503 1502 1501 1501 1501 1500 1498 1497 1497 1497 1496 1497 1497 1497 1497 1497 1498 1498 1498 1498
1523 1522 1521 1520 1519 1518 1517 1515 1514 1513 1512 1511 1510 1509 1508 1507 1506 1505 1504 1502 1501 1500 1499 1499 1498 1497 1496 1497 1496 1495 1493 1493 1491 1491 1491 1491 1491 1492 1491 1492 1492 1493 1493
1521 1520 1519 1518 1517 1516 1515 1513 1512 1510 1509 1509 1507 1506 1505 1504 1503 1502 1501 1499 1498 1497 1496 1495 1494 1493 1492 1492 1492 1493 1491 1488 1487 1487 1486 1486 1486 1486 1486 1486 1486 1486 1487
1519 1518 1517 1516 1515 1514 1512 1511 1510 1508 1507 1506 1505 1504 1502 1501 1500 1499 1497 1496 1495 1493 1492 1491 1490 1490 1489 1488 1488 1488 1488 1487 1486 1483 1482 1481 1480 1480 1480 1480 1480 1480 1480
1517 1516 1515 1514 1513 1511 1510 1509 1507 1506 1505 1503 1502 1501 1500 1499 1497 1496 1494 1493 1492 1490 1489 1488 1487 1486 1486 1485 1484 1484 1483 1482 1482 1481 1478 1477 1476 1476 1475 1475 1474 1474 1474
1514 1514 1513 1512 1510 1509 1508 1506 1505 1504 1502 1501 1499 1498 1497 1496 1494 1493 1491 1490 1489 1487 1486 1485 1484 1483 1482 1481 1480 1480 1479 1478 1477 1476 1475 1473 1472 1471 1471 1470 1469 1469 1468